This demonstration page uses our WeatherBlox Daily Observations layout. Learn more.

Left ArrowRight Arrow

38.20091, -84.87328

Hourly Observations for July 25, 2021

Temp ( °F °C ) Dew Point ( °F °C ) Humidity (%) Winds ( mph kmh ) Pressure ( in mb ) Visibility ( mi km ) Precip ( " mm )
12:53 am 00:53 Clear 74 23.3 69 20.6 85 85 SW 3 6 29.96 1014 9 14 0.00 0.00
1:53 am 01:53 Clear 75 23.9 70 21.1 84 84 SSW 6 9 29.96 1015 9 14 0.00 0.00
2:53 am 02:53 Clear 74 23.3 69 20.6 85 85 SW 5 7 29.93 1013 8 13 0.00 0.00
3:53 am 03:53 Clear 73 22.8 69 20.6 87 87 SW 5 7 29.92 1013 8 13 0.00 0.00
4:53 am 04:53 Clear 74 23.3 69 20.6 85 85 SW 5 7 29.93 1014 8 13 0.00 0.00
5:53 am 05:53 Clear 74 23.3 70 21.1 88 88 Calm 29.95 1014 8 13 0.00 0.00
6:53 am 06:53 Sunny with Mist and Fog 75 23.9 71 21.7 88 88 SW 7 11 29.92 1013 6 10 0.00 0.00
7:53 am 07:53 Mostly Cloudy with Haze 76 24.4 71 21.7 85 85 Calm 29.95 1014 6 10 0.00 0.00
8:53 am 08:53 Mostly Cloudy with Mist and Fog 76 24.4 73 22.8 91 91 SSW 8 13 29.96 1015 5 8 0.00 0.00
9:53 am 09:53 Partly Cloudy with Mist and Fog 78 25.6 74 23.3 87 87 SW 8 13 29.96 1015 6 10 0.00 0.00
10:53 am 10:53 Sunny 83 28.3 76 24.4 79 79 SW 7 11 29.95 1014 7 11 0.00 0.00
11:53 am 11:53 Mostly Sunny 85 29.4 76 24.4 75 75 VRB 7 11 29.95 1014 7 11 0.00 0.00
12:39 pm 12:39 Mostly Cloudy 86 30 76 24.4 72 72 VRB 7 11 29.93 1014 8 13 0.00 0.00
12:53 pm 12:53 Mostly Cloudy 86 30 75 23.9 70 70 W 7 11 29.94 1014 8 13 0.00 0.00
1:53 pm 13:53 Partly Cloudy 87 30.6 75 23.9 67 67 W 6 9 29.94 1014 9 14 0.00 0.00
2:53 pm 14:53 Mostly Sunny 89 31.7 75 23.9 63 63 W 7 11 29.93 1014 10 16 0.00 0.00
3:53 pm 15:53 Mostly Sunny 91 32.8 74 23.3 57 57 undefined N/A 29.92 1013 10 16 0.00 0.00
4:53 pm 16:53 Mostly Sunny 91 32.8 74 23.3 57 57 NW 8 13 29.90 1013 10 16 0.00 0.00
5:53 pm 17:53 Sunny 89 31.7 72 22.2 57 57 WNW 8 13 29.90 1013 10 16 0.00 0.00
6:53 pm 18:53 Sunny 89 31.7 72 22.2 57 57 WNW 5 7 29.89 1012 10 16 0.00 0.00
7:53 pm 19:53 Sunny 88 31.1 74 23.3 63 63 Calm 29.90 1012 10 16 0.00 0.00
8:53 pm 20:53 Sunny 83 28.3 75 23.9 77 77 Calm 29.90 1013 10 16 0.00 0.00
9:53 pm 21:53 Clear 81 27.2 74 23.3 79 79 Calm 29.91 1013 10 16 0.00 0.00
10:53 pm 22:53 Clear 78 25.6 74 23.3 87 87 Calm 29.92 1013 10 16 0.00 0.00
11:53 pm 23:53 Clear 78 25.6 75 23.9 90 90 Calm 29.92 1013 9 14 0.00 0.00

Powered by AerisWeather